Miscellaneous Local Product
Issued by NWS North Platte, NE

Home | Current Version | Previous Version | Text Only | Print | Product List | Glossary On
Versions: 1 2 3 4 5 6 7 8 9 10 11 12 13 14 15 16 17 18 19 20 21 22 23 24 25 26 27 28 29 30 31 32 33 34 35 36 37 38 39 40 41 42 43 44 45 46 47 48 49 50
371
AXUS43 KLBF 162210
MISLBF


WESTERN AND NORTH CENTRAL NEBRASKA HOURLY WEATHER ROUNDUP
NATIONAL WEATHER SERVICE NORTH PLATTE NE
400 PM CST SAT DEC 16 2017

NOTE: "FAIR" INDICATES FEW OR NO CLOUDS BELOW 12,000 FEET WITH NO
SIGNIFICANT WEATHER AND/OR OBSTRUCTIONS TO VISIBILITY.

NOTE: STATIONS NOT REPORTING VARIABLES SUCH AS SKY/WEATHER OR
PRESSURE ARE PROVIDED BY RAWS AND APRS NETWORKS AND ARE NOT UNDER
NATIONAL WEATHER SERVICE QUALITY CONTROL.

...OBSERVATIONS IN AND NEAR THE EASTERN PANHANDLE OF NEBRASKA...

CITY           SKY/WX    TMP DP  RH WIND       PRES   REMARKS
PINE RIDGE     PTSUNNY   38  28  67 N10       29.93R WCI  31
GORDON         CLOUDY    36  30  79 NE9       29.91R WCI  29
CHADRON        CLOUDY    38  27  64 NE12      29.93R WCI  30
ALLIANCE       CLOUDY    35  29  78 NE14      29.88R WCI  26
SIDNEY         SUNNY     40  26  57 NE18      29.84R WCI  31
CRESCENT LAKE    N/A     36  29  75 NE13G22     N/A  WCI  27
$$

...OBSERVATIONS IN NORTHERN NEBRASKA AND FAR SOUTHERN SOUTH DAKOTA...

CITY           SKY/WX    TMP DP  RH WIND       PRES   REMARKS
WINNER         CLOUDY    42  33  70 N10       29.94R
VALENTINE      CLOUDY    40  32  73 N9        29.94R WCI  34
THEDFORD       CLOUDY    39  33  79 NE14      29.91R WCI  31
AINSWORTH      CLOUDY    38  34  82 N9        29.92R WCI  32
O`NEILL        CLOUDY    41  34  76 N12       29.92R
ORD            PTCLDY    46  33  60 N12       29.88R
BROKEN BOW     CLEAR     44  30  57 N13       29.88R
VALENTINE NWR    N/A     37  32  81 N8G16       N/A  WCI  31
HALSEY           N/A     38  32  80 N8G16       N/A  WCI  32
BUTTE            N/A     40  34  80 NE9         N/A  WCI  34
EWING            N/A     42  34  72 N3          N/A
$$

...OBSERVATIONS IN SOUTHWEST NEBRASKA AND FAR NORTHEAST COLORADO...

CITY           SKY/WX    TMP DP  RH WIND       PRES   REMARKS
WRAY           FAIR      48  27  43 NE21G28   29.80R
HOLYOKE        FAIR      46  28  49 NE18      29.83R
IMPERIAL       CLOUDY    47  29  49 NE21G28   29.82R
OGALLALA       CLOUDY    42  31  64 NE17      29.86R
NORTH PLATTE   CLOUDY    44  29  55 NE17G24   29.87R
MCCOOK         CLOUDY    51  27  39 NE23      29.79R
LEXINGTON      CLOUDY    49  31  49 NE18G25   29.84S
STAPLETON        N/A     38  32  79 NE7         N/A  WCI  33
GOTHENBURG       N/A     46  28  49 N8          N/A
CALLAWAY         N/A     42  32  67 NE15        N/A
$$

...OBSERVATIONS IN CENTRAL LINCOLN COUNTY AREA...

CITY           SKY/WX    TMP DP  RH WIND       PRES   REMARKS
N.P. AIRPORT   CLOUDY    44  29  55 NE17G24   29.87R
N.P. DOWNTOWN    N/A     42  30  63 NE10        N/A
N.P. SOUTHEAST   N/A     42  30  62 NE8G16      N/A
N.P. HILLCREST   N/A     41  32  69 NE18G26     N/A
$$

...SOME OBSERVATIONS FROM AROUND THE REGION...

CITY           SKY/WX    TMP DP  RH WIND       PRES   REMARKS
DENVER         CLOUDY    48  12  23 E12       29.79R
GRAND JUNCTION CLOUDY    39  10  30 W5        29.76S
LARAMIE        CLOUDY    33  19  56 E10       29.77S WCI  25
CHEYENNE       CLOUDY    39  18  42 E9        29.81R WCI  33
CASPER         CLOUDY    29  27  92 NE15      29.84S FOG     WCI  18
BISMARCK       CLOUDY    38  31  76 W10       29.97R WCI  31
RAPID CITY     FLURRIES  33  28  81 NW13      29.95R WCI  24
PIERRE         CLOUDY    40  32  73 N8        29.95R WCI  34
SIOUX FALLS    MOCLDY    43  33  68 N12       29.92R
OMAHA          PTCLDY    52  28  39 NW6       29.87R
GRAND ISLAND   CLOUDY    48  32  53 NE17      29.86R
SCOTTSBLUFF    CLOUDY    39  30  70 NE15      29.88R WCI  31
KANSAS CITY    CLEAR     57  27  31 S12G18    29.88R
HILL CITY      SUNNY     53  19  26 E13       29.77R
WICHITA        MOSUNNY   61  24  24 S18G29    29.83R
DODGE CITY     SUNNY     61  19  19 S17G28    29.73R
OKLAHOMA CITY  CLOUDY    58  24  27 S17       29.91S
DALLAS         LGT RAIN  53  39  59 S17       30.02S
AMARILLO       SUNNY     55  20  25 S28G37    29.75R
$$




USA.gov is the U.S. government's official web portal to all federal, state and local government web resources and services.